Theta_e
325 329 334 334 341 342 344 343 346 345 345 344 345 347 347 347 351 355 355 353 349 352 350 338 327 329 339 341 342 334 332 334 331 327 326 327 329 329 329 329 329 330 330 330 330 330 330 330 335
330 329 333 335 343 345 342 342 341 342 343 343 345 347 348 350 347 353 353 352 349 349 352 348 333 324 338 342 342 339 334 338 337 331 327 326 327 327 327 327 327 327 328 329 329 328 327 327 326
326 329 332 337 340 344 342 339 340 339 341 343 343 345 346 348 349 351 351 351 351 351 350 348 338 330 329 340 342 341 338 340 340 334 329 327 326 326 327 327 327 327 327 327 327 327 326 326 326
330 331 332 334 341 338 340 340 340 340 340 339 340 345 346 345 348 351 350 350 347 348 354 346 339 333 324 333 339 340 340 340 340 335 331 328 327 327 327 327 327 328 328 328 328 329 328 328 328
328 330 333 335 337 337 336 337 339 341 340 341 340 342 346 347 350 351 352 350 347 346 352 346 335 337 330 323 325 333 336 337 336 335 332 329 328 328 327 327 327 327 327 329 329 330 330 330 330
328 329 332 333 335 334 333 336 338 338 339 339 340 341 345 346 348 352 353 351 349 349 349 339 329 333 332 325 323 325 327 330 331 331 330 330 329 329 328 327 326 325 325 328 328 329 330 330 329
329 331 330 330 332 333 333 335 337 337 339 337 335 341 349 349 349 352 350 349 348 347 348 346 338 331 337 331 326 324 324 325 325 326 327 326 326 325 324 324 324 324 325 326 327 328 329 329 329
325 328 329 330 330 332 331 333 332 336 335 333 330 334 341 338 346 346 346 349 347 345 347 350 350 336 339 337 334 330 326 324 324 324 324 324 324 325 326 326 327 327 327 328 328 329 330 330 331
324 327 329 330 330 332 330 331 335 331 335 330 329 329 337 347 345 343 344 347 349 346 347 349 349 350 349 347 339 338 338 337 334 331 332 331 330 334 334 332 330 330 330 331 331 331 331 332 332
326 329 330 330 330 331 329 329 332 331 331 332 329 329 335 342 346 343 340 343 343 347 347 347 347 348 349 348 344 337 340 340 334 336 336 334 347 347 346 346 344 338 333 332 332 332 333 333 336
327 329 328 327 327 327 327 326 326 328 330 328 326 328 332 338 342 340 337 339 342 344 346 345 350 349 348 348 348 348 348 351 353 352 350 351 351 347 346 347 346 348 345 346 345 345 341 340 344
326 326 326 325 324 325 325 325 325 325 325 325 326 330 331 333 334 332 334 339 339 342 342 347 351 350 351 351 349 347 343 341 343 341 330 336 340 348 343 346 347 346 343 343 347 347 347 348 343
326 325 324 324 323 324 323 324 325 325 324 325 328 328 331 332 333 331 331 338 344 343 346 347 351 352 355 351 348 343 338 332 333 332 323 328 328 330 334 338 340 340 343 342 343 341 335 341 344
325 324 324 323 324 324 325 325 325 326 325 325 325 327 327 328 329 331 334 336 345 349 348 349 349 348 348 345 343 339 333 320 326 324 318 316 325 323 327 327 328 328 330 336 340 338 342 334 338
324 325 325 324 324 324 324 326 327 326 326 326 326 327 327 327 329 329 328 337 346 347 347 345 342 340 340 341 335 330 327 327 326 320 315 315 316 317 315 327 327 329 330 329 329 331 332 335 336
325 326 327 326 324 324 324 327 326 326 326 327 327 327 328 330 331 331 329 339 343 343 344 341 337 336 334 333 328 328 327 327 326 325 325 321 320 314 315 323 325 319 322 326 330 331 331 329 328
326 327 327 327 325 326 325 328 327 326 327 327 327 328 329 330 331 331 330 330 335 339 341 337 335 334 332 322 326 324 319 325 326 324 323 320 324 322 318 323 321 312 321 323 326 327 329 331 332
328 327 326 326 327 326 326 327 328 326 327 327 328 328 329 330 330 331 331 331 331 334 335 334 332 328 323 324 318 325 325 324 324 323 324 323 324 324 317 324 322 317 323 323 321 312 317 324 327
326 326 326 326 326 325 325 327 328 327 326 327 327 327 328 328 329 330 330 330 331 332 332 332 332 329 328 326 325 324 324 324 323 323 324 324 325 325 325 325 324 324 323 322 318 320 321 322 323
325 326 326 326 325 325 325 327 328 327 326 326 326 326 326 326 326 328 329 330 331 331 332 331 331 331 329 327 328 327 327 326 326 326 327 324 322 325 325 326 324 323 325 321 322 318 319 322 321
326 326 326 326 326 326 326 326 328 327 325 325 324 324 324 324 324 324 324 325 326 327 329 330 330 330 330 325 328 330 330 328 327 327 328 328 327 327 327 325 326 325 322 324 323 322 320 321 321
324 325 324 323 324 325 327 327 329 328 327 325 324 324 323 323 323 322 321 321 321 321 321 322 323 324 324 324 322 323 324 324 323 326 325 324 326 325 325 326 325 324 325 323 322 322 322 318 321
323 321 321 321 322 323 323 324 327 328 327 326 325 324 323 323 322 321 321 320 320 319 318 318 319 319 320 321 320 321 320 321 322 322 322 321 321 319 321 322 324 324 324 324 322 322 321 320 319
321 321 322 323 323 323 324 324 321 326 326 324 324 323 322 321 320 320 320 319 318 318 317 317 317 317 318 318 318 320 320 320 320 319 320 319 317 317 318 319 322 325 323 323 322 324 323 318 318
321 322 324 325 325 324 323 322 321 326 325 323 322 323 322 321 320 319 318 318 317 317 317 317 316 316 316 315 315 316 317 318 319 319 318 316 317 316 317 318 319 321 323 324 322 322 322 321 320
320 320 322 323 322 321 321 321 328 325 323 321 321 321 320 319 319 318 316 316 316 315 315 315 315 315 314 314 314 314 315 315 316 316 316 316 316 316 316 316 316 317 321 322 322 322 322 321 321
321 324 320 322 325 323 322 321 324 323 322 321 320 320 319 318 318 317 316 315 314 314 313 313 313 313 313 313 313 313 313 314 315 315 316 315 315 314 313 314 315 316 318 322 320 321 321 320 320
320 320 324 325 326 321 320 320 324 323 323 321 320 319 318 317 316 315 314 314 314 313 312 312 312 312 313 312 313 312 312 313 314 314 313 312 311 312 311 312 313 313 314 315 318 320 320 319 320
322 323 322 322 324 323 322 321 322 322 321 320 319 318 318 317 315 314 314 313 312 311 311 311 311 311 311 311 311 311 311 312 311 311 311 310 309 309 309 310 310 311 312 313 316 318 320 318 317
320 320 321 324 326 323 323 323 323 321 320 319 319 319 317 316 314 313 312 311 310 309 309 310 310 310 310 311 311 311 310 309 308 308 308 308 307 308 309 309 309 309 311 312 313 317 317 317 316
Wind_Speed
4 4 3 8 8 6 10 7 16 4 20 14 12 6 8 8 9 3 8 8 9 9 6 7 9 10 10 15 15 14 15 12 12 11 10 9 8 7 7 7 7 7 6 6 6 6 7 7 8
1 7 7 13 2 12 6 13 5 15 18 12 10 6 7 11 9 12 10 10 10 8 5 5 7 10 11 14 15 15 15 12 11 10 10 9 8 7 6 5 5 4 4 4 4 5 6 6 7
2 8 14 14 10 9 3 17 10 13 9 7 6 7 4 6 9 7 10 10 10 11 6 8 7 8 11 12 15 15 15 13 11 10 10 9 8 7 6 4 2 2 1 1 1 2 3 5 6
2 9 15 13 14 14 12 13 10 8 7 5 2 14 10 11 7 7 12 10 8 8 8 7 10 11 12 14 14 15 16 14 12 10 10 10 9 7 5 4 3 2 2 3 3 3 4 4 5
7 14 14 16 12 16 6 14 6 1 3 9 4 11 13 9 11 11 11 11 8 8 5 7 9 11 11 12 14 15 15 15 13 12 11 10 9 8 6 6 5 5 5 6 6 6 6 6 7
17 15 14 8 7 3 3 4 6 5 7 1 12 18 17 12 8 9 12 11 10 8 7 3 6 10 12 13 13 14 14 14 13 12 11 11 9 9 8 8 8 8 8 8 8 9 9 9 9
16 14 16 8 7 7 5 3 6 7 24 28 5 12 21 15 9 11 11 11 10 8 8 6 7 10 11 11 12 12 11 12 11 11 11 9 9 9 10 10 11 11 10 11 11 11 12 12 12
15 13 9 8 3 12 8 5 2 8 9 7 9 13 17 11 9 11 9 9 12 9 8 8 8 8 10 9 9 9 9 9 8 8 8 7 8 10 10 12 12 12 12 13 13 13 14 14 15
11 12 12 4 6 14 7 5 2 4 3 7 9 13 13 12 11 7 6 8 8 8 8 7 7 8 9 8 9 9 8 7 8 8 7 6 7 9 11 12 13 13 14 14 15 14 15 15 16
13 13 8 12 5 8 6 7 6 5 3 4 2 10 6 7 7 4 3 11 9 11 10 8 9 9 10 9 10 8 7 7 6 6 6 4 3 5 11 13 17 16 16 16 15 14 14 15 14
14 8 10 1 8 7 8 3 3 9 16 10 11 10 5 6 4 7 6 6 10 16 10 10 11 12 9 9 7 7 5 6 3 5 7 5 10 5 9 10 15 12 13 17 15 13 10 10 8
1 8 3 7 2 2 2 11 11 11 9 7 5 5 4 2 4 3 5 6 4 2 10 7 8 10 9 9 8 8 7 6 5 5 5 6 3 6 10 11 14 13 17 18 17 18 16 12 11
4 6 1 3 3 2 5 6 10 10 9 6 4 1 4 6 4 1 2 6 8 6 2 3 6 7 10 13 13 9 9 6 5 2 5 5 5 12 7 8 9 12 15 20 19 16 19 15 14
4 2 5 5 9 3 6 4 5 9 5 3 3 4 6 7 9 12 9 6 1 3 1 2 4 8 8 13 12 8 8 7 5 6 9 5 3 7 2 6 8 9 11 13 17 18 22 26 21
3 10 7 5 7 5 5 10 5 4 3 3 4 5 7 7 9 9 14 14 5 4 3 4 5 6 9 8 5 8 5 5 3 7 7 6 5 4 1 4 4 6 9 10 13 16 17 21 22
9 7 12 12 7 4 10 6 7 3 3 4 6 7 8 9 11 12 9 7 6 3 4 2 6 3 7 9 7 6 5 4 3 2 2 2 4 4 2 3 5 8 7 8 9 11 13 14 18
9 13 7 10 3 2 11 6 7 1 3 4 5 6 8 10 13 14 12 8 6 5 5 3 2 3 8 7 6 6 6 4 4 2 2 4 2 3 3 5 5 8 6 7 8 9 10 12 15
6 10 4 7 10 7 8 1 5 1 1 2 4 5 7 10 13 14 14 12 8 4 3 3 3 6 6 6 7 4 4 4 4 3 4 2 2 4 5 6 13 10 7 7 10 12 12 12 13
12 7 10 3 6 10 9 3 4 2 3 3 3 5 7 9 10 13 14 13 11 8 5 4 5 6 3 5 6 7 7 7 6 6 6 4 4 4 9 6 9 11 9 17 16 13 12 11 11
11 12 12 1 4 7 12 10 7 6 2 1 1 4 5 7 10 11 12 11 10 8 7 6 5 6 4 5 5 8 6 7 9 8 9 10 12 9 9 11 11 12 13 12 21 18 16 12 11
10 10 11 8 8 9 14 15 15 8 6 4 3 2 3 5 8 9 10 11 10 9 8 7 7 8 6 8 7 7 9 12 12 12 10 8 8 11 14 15 17 19 20 16 17 15 18 13 12
13 10 8 12 12 13 3 11 11 15 10 7 4 1 3 4 6 8 9 10 9 9 9 9 10 11 9 13 13 13 14 17 17 16 18 21 18 18 19 21 21 23 22 23 22 19 15 14 13
13 11 11 11 12 14 16 10 9 10 12 9 6 3 6 7 8 9 10 11 12 12 13 13 14 14 14 14 16 15 15 17 17 19 22 27 26 24 22 24 25 24 24 23 23 22 21 16 13
9 12 13 13 11 11 15 3 5 9 9 5 6 6 6 11 13 11 13 15 17 19 20 19 20 20 19 19 18 19 22 22 22 22 23 24 25 24 23 22 23 25 25 24 23 20 18 19 17
6 9 8 6 9 7 6 5 7 8 5 8 7 5 8 11 16 16 21 24 25 24 23 24 23 24 23 22 21 21 23 25 27 27 26 27 26 25 24 22 23 21 25 23 25 26 23 18 16
8 7 6 6 7 13 12 9 7 8 5 2 2 6 12 19 18 24 28 28 27 26 26 27 27 26 26 26 26 26 26 26 27 29 28 26 25 26 29 32 30 29 27 29 31 30 25 23 17
5 4 7 7 13 10 7 1 14 7 3 6 11 10 17 15 21 24 27 30 29 29 28 28 30 28 28 28 30 30 29 29 29 32 32 31 28 28 30 31 30 29 28 26 32 34 31 26 23
6 6 5 4 4 9 10 13 8 2 5 11 11 18 20 26 27 27 28 28 29 29 30 30 31 31 30 31 31 32 32 31 29 29 30 34 36 33 34 33 33 35 37 35 34 38 38 33 26
6 9 5 3 6 6 8 7 10 7 9 12 20 22 22 20 26 32 30 30 32 30 32 34 33 34 35 33 34 34 32 29 30 33 35 34 34 36 38 36 37 35 34 36 36 38 39 33 30
7 9 3 3 7 8 11 10 4 6 11 14 16 15 17 25 32 31 28 30 33 35 35 35 35 36 37 34 31 29 30 33 31 28 28 27 30 26 25 26 29 32 32 32 36 35 38 38 31
Wind_Direction
343 349 338 277 250 102 15 336 51 155 88 73 71 35 43 13 29 34 132 123 114 130 136 160 156 163 166 171 174 177 175 166 154 152 153 150 148 136 124 117 107 99 95 89 78 66 59 55 50
7 266 266 270 65 310 352 50 21 47 71 86 98 110 53 73 45 114 127 121 118 135 136 168 158 166 170 174 178 181 182 179 168 163 162 162 160 151 142 135 121 108 100 87 66 50 39 32 32
252 243 277 247 197 219 140 263 79 73 82 60 107 68 58 85 111 101 119 132 130 135 145 208 172 174 177 178 183 187 190 190 185 178 174 172 173 168 168 163 151 133 116 87 44 28 18 10 3
284 236 259 247 73 323 153 245 78 123 113 68 2 96 94 94 115 128 133 132 130 129 165 214 181 178 179 188 190 191 194 197 193 191 186 186 184 187 186 196 213 240 271 294 308 320 325 328 328
254 262 256 267 182 185 11 16 27 149 92 68 10 112 98 112 122 129 136 138 143 133 146 212 192 183 182 184 195 200 202 201 200 198 194 195 194 202 210 224 237 247 261 271 278 285 291 301 305
252 254 279 321 20 230 8 50 331 319 48 274 32 127 119 132 130 140 143 144 146 151 146 214 200 194 181 182 187 198 201 206 201 200 198 207 213 223 233 244 251 254 258 265 270 275 280 286 289
255 275 274 337 64 129 78 340 254 150 63 6 14 60 78 111 136 140 146 147 147 156 159 161 175 186 185 186 184 189 194 203 205 206 210 219 238 248 255 260 263 264 265 265 265 267 272 277 281
281 287 286 248 145 88 105 184 25 51 346 125 357 47 104 241 148 133 137 154 163 158 165 160 173 173 184 190 184 183 189 197 209 214 224 234 249 259 266 267 268 269 269 269 271 272 275 278 282
248 270 252 166 284 103 133 185 25 23 37 32 23 36 86 141 152 142 144 166 200 161 170 167 162 177 173 189 195 194 185 195 203 210 219 239 255 275 278 274 273 273 268 268 267 270 273 276 278
243 246 42 25 33 121 131 337 97 257 100 164 349 85 87 118 154 145 186 180 178 179 171 177 175 177 177 188 212 190 207 206 205 209 212 232 13 257 259 259 278 288 277 272 270 271 269 272 279
226 271 75 73 24 359 105 160 339 344 47 33 353 51 99 140 150 210 161 203 212 192 168 166 174 172 176 187 185 191 206 207 215 213 226 213 209 264 298 277 293 294 305 299 272 275 268 299 252
253 38 62 66 108 267 193 74 64 39 21 28 21 8 64 118 154 134 337 43 238 51 102 158 175 175 182 192 184 200 195 186 184 205 217 288 305 277 269 262 254 273 279 267 264 271 262 225 257
140 144 126 164 125 68 78 83 97 48 34 44 50 106 10 346 340 292 262 332 357 351 80 145 169 183 204 181 211 187 180 173 197 164 251 216 218 253 270 257 271 273 277 282 285 289 294 259 266
96 255 177 205 131 187 142 90 328 39 25 51 12 4 354 344 332 322 310 292 271 276 266 233 192 210 201 200 211 218 206 220 205 214 224 228 202 270 309 312 295 285 281 281 290 291 292 285 302
197 215 178 194 180 180 204 169 86 41 29 20 342 336 333 341 342 336 315 323 281 294 228 216 192 189 194 216 195 187 171 197 196 232 236 245 239 287 282 298 320 294 288 307 297 294 293 294 297
236 269 202 134 180 133 245 150 95 32 20 15 2 1 2 13 1 351 355 340 319 287 292 260 225 226 202 211 177 176 191 179 195 211 268 299 320 309 333 317 306 299 329 307 302 309 306 294 288
202 253 198 143 229 164 209 136 99 57 57 32 22 24 24 20 19 18 12 4 335 315 281 285 246 218 246 228 206 199 222 189 216 228 254 293 337 355 26 331 324 332 325 312 307 308 300 302 299
239 219 195 287 144 231 247 127 93 35 96 78 54 46 39 36 33 33 33 32 27 14 341 322 298 270 232 245 240 214 233 234 232 235 240 293 304 336 331 327 314 334 327 313 292 306 300 301 299
325 311 292 261 83 289 276 319 142 205 219 116 62 50 55 53 45 44 44 43 41 37 23 7 344 344 325 290 259 259 249 238 239 245 250 272 273 297 311 309 305 316 317 300 312 315 317 305 302
293 282 272 290 194 285 272 239 166 223 187 173 94 77 47 48 46 43 41 41 39 37 37 26 12 349 348 313 287 274 283 254 250 248 259 281 288 292 303 296 293 300 293 304 301 308 315 306 298
263 291 321 310 310 233 255 259 182 193 191 163 137 113 73 29 18 21 28 30 27 24 22 11 359 343 331 308 315 294 285 284 269 268 262 266 270 284 289 287 285 281 285 292 278 292 290 294 290
303 13 305 290 280 277 144 285 172 177 202 203 193 221 349 354 355 356 350 358 358 358 356 352 351 347 335 330 322 312 299 288 275 281 284 290 280 278 281 282 272 268 271 267 268 283 267 288 284
317 333 303 296 281 280 267 233 84 151 206 194 210 269 298 316 330 331 333 333 330 331 327 323 322 319 315 315 314 302 292 285 285 281 274 267 267 280 284 285 272 269 265 266 269 254 267 262 273
302 277 262 249 248 251 233 275 243 177 208 242 170 242 290 307 312 314 314 316 312 311 309 307 309 308 305 304 295 288 288 288 285 280 277 282 286 283 278 269 276 264 261 254 257 251 250 255 245
287 318 297 235 205 255 99 278 302 73 51 352 348 313 296 301 299 316 320 314 309 306 307 306 304 304 304 303 300 293 287 282 278 283 285 282 281 280 277 274 272 274 265 256 246 249 241 242 250
302 318 289 305 323 316 319 241 125 86 94 23 319 287 297 295 311 307 303 303 309 311 309 306 302 301 301 300 299 296 290 285 280 278 278 276 274 275 274 273 273 267 265 260 247 239 240 244 244
18 272 14 299 279 263 279 27 132 92 163 239 249 282 296 300 299 303 309 314 315 308 305 304 303 300 301 301 300 297 295 290 285 280 278 277 278 278 278 275 273 265 262 259 250 241 235 234 234
300 16 242 201 291 312 333 300 75 224 298 338 315 303 312 320 316 310 312 309 304 303 303 303 301 299 299 298 296 295 295 292 283 273 272 273 276 281 280 275 269 268 262 260 255 243 236 230 231
181 204 224 319 300 305 307 335 42 18 330 313 307 315 331 317 314 307 309 302 305 311 310 307 305 303 299 296 295 294 291 291 291 291 287 288 285 282 273 273 268 264 264 257 258 244 236 231 235
285 301 297 277 279 285 308 307 55 333 284 296 298 321 311 292 304 309 314 315 318 314 309 308 308 304 300 298 297 296 293 294 289 285 288 284 285 282 281 278 274 267 264 259 259 250 237 224 224